TimeEDT,TemperatureF,Dew PointF,Humidity,Sea Level PressureIn,VisibilityMPH,Wind Direction,Wind SpeedMPH,Gust SpeedMPH,PrecipitationIn,Events,Conditions,WindDirDegrees,DateUTC
12:15 AM,52.0,50.4,94,30.28,4.0,Calm,Calm,-,N/A,,Clear,0,2013-10-15 04:15:00
12:35 AM,50.9,49.3,94,30.27,1.2,Calm,Calm,-,N/A,,Scattered Clouds,0,2013-10-15 04:35:00
12:55 AM,48.2,46.8,95,30.27,0.5,Calm,Calm,-,N/A,Fog,Fog,0,2013-10-15 04:55:00
1:15 AM,49.1,48.0,96,30.27,0.2,Calm,Calm,-,N/A,Fog,Fog,0,2013-10-15 05:15:00
1:35 AM,49.1,47.7,95,30.26,0.2,Calm,Calm,-,N/A,Fog,Fog,0,2013-10-15 05:35:00
1:55 AM,50.2,49.1,96,30.27,0.2,Calm,Calm,-,N/A,Fog,Fog,0,2013-10-15 05:55:00
2:15 AM,50.9,49.6,95,30.26,0.2,Calm,Calm,-,N/A,Fog,Fog,0,2013-10-15 06:15:00
2:35 AM,51.8,50.5,95,30.26,0.2,Calm,Calm,-,N/A,Fog,Fog,0,2013-10-15 06:35:00
2:55 AM,52.0,50.9,96,30.25,0.2,Calm,Calm,-,N/A,Fog,Fog,0,2013-10-15 06:55:00
3:15 AM,52.2,51.1,96,30.25,0.2,Calm,Calm,-,N/A,Fog,Fog,0,2013-10-15 07:15:00
3:35 AM,52.3,51.3,96,30.25,0.2,Calm,Calm,-,N/A,Fog,Fog,0,2013-10-15 07:35:00
3:55 AM,52.2,51.1,96,30.24,0.2,Calm,Calm,-,N/A,Fog,Fog,0,2013-10-15 07:55:00
4:15 AM,52.0,50.9,96,30.25,0.2,Calm,Calm,-,N/A,Fog,Fog,0,2013-10-15 08:15:00
4:35 AM,52.2,51.1,96,30.25,0.2,Calm,Calm,-,N/A,Fog,Fog,0,2013-10-15 08:35:00
4:55 AM,51.8,50.9,97,30.24,0.5,Calm,Calm,-,N/A,Fog,Fog,0,2013-10-15 08:55:00
5:15 AM,52.3,51.3,96,30.24,0.2,NE,3.5,-,N/A,Fog,Fog,40,2013-10-15 09:15:00
5:35 AM,52.7,51.6,96,30.24,0.5,Calm,Calm,-,N/A,Fog,Fog,0,2013-10-15 09:35:00
5:55 AM,52.7,51.4,95,30.24,0.2,Calm,Calm,-,N/A,Fog,Fog,0,2013-10-15 09:55:00
6:15 AM,52.5,51.4,96,30.24,0.2,Calm,Calm,-,N/A,Fog,Fog,0,2013-10-15 10:15:00
6:35 AM,52.3,51.3,96,30.25,0.2,Calm,Calm,-,N/A,Fog,Fog,0,2013-10-15 10:35:00
6:55 AM,52.7,51.6,96,30.24,0.5,Calm,Calm,-,N/A,Fog,Fog,0,2013-10-15 10:55:00
7:15 AM,52.9,51.8,96,30.25,1.0,Calm,Calm,-,N/A,,Overcast,0,2013-10-15 11:15:00
7:35 AM,52.7,51.6,96,30.25,1.2,Calm,Calm,-,N/A,,Overcast,0,2013-10-15 11:35:00
7:55 AM,52.7,51.6,96,30.25,0.8,Calm,Calm,-,N/A,,Overcast,0,2013-10-15 11:55:00
8:15 AM,52.9,51.8,96,30.25,1.0,Calm,Calm,-,N/A,,Overcast,0,2013-10-15 12:15:00
8:35 AM,53.1,52.0,96,30.26,1.0,Calm,Calm,-,N/A,,Overcast,0,2013-10-15 12:35:00
8:55 AM,53.6,52.3,95,30.26,1.8,Calm,Calm,-,N/A,,Overcast,0,2013-10-15 12:55:00
9:15 AM,53.6,52.7,97,30.26,2.0,ESE,3.5,-,N/A,,Overcast,110,2013-10-15 13:15:00
9:35 AM,54.0,52.9,96,30.25,3.0,Calm,Calm,-,N/A,,Overcast,0,2013-10-15 13:35:00
9:55 AM,54.3,53.4,97,30.25,4.0,SSE,3.5,-,N/A,,Overcast,160,2013-10-15 13:55:00
10:15 AM,54.3,53.2,96,30.25,4.0,South,3.5,-,N/A,,Overcast,170,2013-10-15 14:15:00
10:35 AM,54.3,53.2,96,30.25,4.0,Calm,Calm,-,N/A,,Overcast,0,2013-10-15 14:35:00
10:55 AM,54.7,53.6,96,30.25,5.0,ESE,3.5,-,N/A,,Overcast,120,2013-10-15 14:55:00
11:15 AM,55.0,54.0,96,30.25,7.0,Calm,Calm,-,N/A,,Overcast,0,2013-10-15 15:15:00
11:35 AM,55.8,54.7,96,30.24,7.0,ESE,3.5,-,N/A,,Overcast,110,2013-10-15 15:35:00
11:55 AM,57.2,54.5,91,30.24,7.0,ESE,3.5,-,N/A,,Overcast,120,2013-10-15 15:55:00
12:15 PM,58.1,52.5,82,30.24,10.0,Calm,Calm,-,N/A,,Overcast,0,2013-10-15 16:15:00
12:35 PM,58.3,52.7,82,30.23,10.0,ESE,3.5,-,N/A,,Overcast,120,2013-10-15 16:35:00
12:55 PM,59.0,52.9,80,30.22,10.0,ESE,3.5,-,N/A,,Overcast,110,2013-10-15 16:55:00
1:15 PM,59.9,53.1,78,30.21,10.0,Calm,Calm,-,N/A,,Mostly Cloudy,0,2013-10-15 17:15:00
1:35 PM,60.4,52.9,76,30.20,10.0,Calm,Calm,-,N/A,,Scattered Clouds,0,2013-10-15 17:35:00
1:55 PM,61.3,53.1,74,30.19,10.0,Calm,Calm,-,N/A,,Clear,0,2013-10-15 17:55:00
2:15 PM,62.2,54.0,74,30.18,10.0,Calm,Calm,-,N/A,,Scattered Clouds,0,2013-10-15 18:15:00
2:35 PM,62.8,53.4,71,30.17,10.0,Calm,Calm,-,N/A,,Clear,0,2013-10-15 18:35:00
2:55 PM,64.0,52.3,66,30.17,10.0,Calm,Calm,-,N/A,,Clear,0,2013-10-15 18:55:00
3:15 PM,64.2,52.5,66,30.16,10.0,Calm,Calm,-,N/A,,Clear,0,2013-10-15 19:15:00
3:35 PM,65.5,53.2,65,30.15,10.0,Calm,Calm,-,N/A,,Clear,0,2013-10-15 19:35:00
3:55 PM,65.1,51.8,62,30.15,10.0,Calm,Calm,-,N/A,,Clear,0,2013-10-15 19:55:00
4:15 PM,65.1,52.5,64,30.14,10.0,Calm,Calm,-,N/A,,Clear,0,2013-10-15 20:15:00
4:35 PM,65.3,52.3,63,30.14,10.0,ESE,3.5,-,N/A,,Clear,110,2013-10-15 20:35:00
4:55 PM,65.3,51.8,62,30.14,10.0,Calm,Calm,-,N/A,,Clear,0,2013-10-15 20:55:00
5:15 PM,64.6,52.0,64,30.14,10.0,Calm,Calm,-,N/A,,Clear,0,2013-10-15 21:15:00
5:35 PM,64.0,53.2,68,30.14,10.0,Calm,Calm,-,N/A,,Clear,0,2013-10-15 21:35:00
5:55 PM,63.1,54.0,72,30.14,10.0,Calm,Calm,-,N/A,,Clear,0,2013-10-15 21:55:00
6:15 PM,62.1,54.9,77,30.14,10.0,Calm,Calm,-,N/A,,Clear,0,2013-10-15 22:15:00
6:35 PM,61.3,55.4,81,30.14,10.0,Calm,Calm,-,N/A,,Clear,0,2013-10-15 22:35:00
6:55 PM,59.4,54.7,84,30.14,7.0,Calm,Calm,-,N/A,,Clear,0,2013-10-15 22:55:00
7:15 PM,58.3,53.6,84,30.14,10.0,Calm,Calm,-,N/A,,Clear,0,2013-10-15 23:15:00
7:35 PM,58.3,52.9,82,30.13,10.0,Calm,Calm,-,N/A,,Clear,0,2013-10-15 23:35:00
7:55 PM,56.7,53.2,88,30.13,10.0,Calm,Calm,-,N/A,,Clear,0,2013-10-15 23:55:00
8:15 PM,55.4,52.3,89,30.13,10.0,Calm,Calm,-,N/A,,Clear,0,2013-10-16 00:15:00
8:55 PM,54.5,52.0,91,30.14,10.0,Calm,Calm,-,N/A,,Clear,0,2013-10-16 00:55:00
9:15 PM,54.0,51.8,92,30.13,10.0,Calm,Calm,-,N/A,,Clear,0,2013-10-16 01:15:00
9:35 PM,53.8,50.7,89,30.13,10.0,Calm,Calm,-,N/A,,Clear,0,2013-10-16 01:35:00
9:55 PM,52.9,50.4,91,30.14,10.0,Calm,Calm,-,N/A,,Clear,0,2013-10-16 01:55:00
10:15 PM,52.7,50.7,93,30.13,7.0,Calm,Calm,-,N/A,,Clear,0,2013-10-16 02:15:00
10:35 PM,52.7,50.9,94,30.13,10.0,Calm,Calm,-,N/A,,Clear,0,2013-10-16 02:35:00
10:55 PM,52.0,50.2,94,30.15,7.0,West,3.5,-,N/A,,Clear,280,2013-10-16 02:55:00
11:15 PM,52.0,50.2,94,30.13,7.0,Calm,Calm,-,N/A,,Clear,0,2013-10-16 03:15:00
11:35 PM,52.7,50.7,93,30.14,10.0,Calm,Calm,-,N/A,,Clear,0,2013-10-16 03:35:00
11:55 PM,52.3,50.2,92,30.13,10.0,Calm,Calm,-,N/A,,Clear,0,2013-10-16 03:55:00